Time,TemperatureF,DewpointF,PressureIn,WindDirection,WindDirectionDegrees,WindSpeedMPH,WindSpeedGustMPH,Humidity,HourlyPrecipIn,Conditions,Clouds,dailyrainin,SoftwareType,DateUTC
2013-01-27 00:00:00,19.2,9.4,30.56,East,90,0.0,0.0,65,0.00,,---,0.00,VWS V14.01,2013-01-27 05:00:00,
2013-01-27 00:02:00,19.0,9.2,30.56,East,90,0.0,0.0,65,0.00,,---,0.00,VWS V14.01,2013-01-27 05:02:00,
2013-01-27 00:07:00,19.0,9.2,30.56,East,90,0.0,0.0,65,0.00,,---,0.00,VWS V14.01,2013-01-27 05:07:00,
2013-01-27 00:12:00,18.7,8.9,30.56,East,90,0.0,0.0,65,0.00,,---,0.00,VWS V14.01,2013-01-27 05:12:00,
2013-01-27 00:17:00,18.5,8.7,30.56,East,90,0.0,0.0,65,0.00,,---,0.00,VWS V14.01,2013-01-27 05:17:00,
2013-01-27 00:22:00,18.3,8.5,30.56,East,90,0.0,0.0,65,0.00,,---,0.00,VWS V14.01,2013-01-27 05:22:00,
2013-01-27 00:27:00,18.3,8.5,30.53,East,90,0.0,0.0,65,0.00,,---,0.00,VWS V14.01,2013-01-27 05:27:00,
2013-01-27 00:32:00,18.3,8.9,30.53,East,90,0.0,0.0,66,0.00,,---,0.00,VWS V14.01,2013-01-27 05:32:00,
2013-01-27 00:37:00,18.3,8.9,30.53,East,90,0.0,0.0,66,0.00,,---,0.00,VWS V14.01,2013-01-27 05:37:00,
2013-01-27 00:42:00,18.3,8.9,30.56,East,90,0.0,0.0,66,0.00,,---,0.00,VWS V14.01,2013-01-27 05:42:00,
2013-01-27 00:47:00,18.3,8.9,30.56,East,90,0.0,0.0,66,0.00,,---,0.00,VWS V14.01,2013-01-27 05:47:00,
2013-01-27 00:52:00,18.1,8.7,30.56,East,90,0.0,0.0,66,0.00,,---,0.00,VWS V14.01,2013-01-27 05:52:00,
2013-01-27 00:57:00,18.1,8.7,30.56,East,90,0.0,0.0,66,0.00,,---,0.00,VWS V14.01,2013-01-27 05:57:00,
2013-01-27 01:02:00,18.1,8.7,30.56,East,90,0.0,0.0,66,0.00,,---,0.00,VWS V14.01,2013-01-27 06:02:00,
2013-01-27 01:07:00,18.3,8.9,30.56,East,90,0.0,0.0,66,0.00,,---,0.00,VWS V14.01,2013-01-27 06:07:00,
2013-01-27 01:12:00,18.3,9.2,30.56,East,90,0.0,0.0,67,0.00,,---,0.00,VWS V14.01,2013-01-27 06:12:00,
2013-01-27 01:17:00,18.1,9.4,30.56,East,90,0.0,0.0,68,0.00,,---,0.00,VWS V14.01,2013-01-27 06:17:00,
2013-01-27 01:22:00,18.0,9.2,30.56,East,90,0.0,0.0,68,0.00,,---,0.00,VWS V14.01,2013-01-27 06:22:00,
2013-01-27 01:27:00,17.8,8.7,30.56,East,90,0.0,0.0,67,0.00,,---,0.00,VWS V14.01,2013-01-27 06:27:00,
2013-01-27 01:32:00,17.8,8.7,30.56,East,90,0.0,0.0,67,0.00,,---,0.00,VWS V14.01,2013-01-27 06:32:00,
2013-01-27 01:37:00,17.6,8.9,30.56,East,90,0.0,0.0,68,0.00,,---,0.00,VWS V14.01,2013-01-27 06:37:00,
2013-01-27 01:42:00,17.6,8.9,30.56,East,90,0.0,0.0,68,0.00,,---,0.00,VWS V14.01,2013-01-27 06:42:00,
2013-01-27 01:47:00,17.6,8.9,30.56,East,90,0.0,0.0,68,0.00,,---,0.00,VWS V14.01,2013-01-27 06:47:00,
2013-01-27 01:51:00,17.6,8.9,30.56,East,90,0.0,0.0,68,0.00,,---,0.00,VWS V14.01,2013-01-27 06:51:00,
2013-01-27 01:56:00,17.6,8.9,30.59,East,90,0.0,0.0,68,0.00,,---,0.00,VWS V14.01,2013-01-27 06:56:00,
2013-01-27 02:01:00,17.4,8.7,30.59,East,90,0.0,0.0,68,0.00,,---,0.00,VWS V14.01,2013-01-27 07:01:00,
2013-01-27 02:06:00,17.4,8.7,30.59,East,90,0.0,0.0,68,0.00,,---,0.00,VWS V14.01,2013-01-27 07:06:00,
2013-01-27 02:13:00,17.4,8.7,30.56,East,90,0.0,0.0,68,0.00,,---,0.00,VWS V14.01,2013-01-27 07:13:00,
2013-01-27 02:18:00,17.2,8.5,30.56,East,90,0.0,0.0,68,0.00,,---,0.00,VWS V14.01,2013-01-27 07:18:00,
2013-01-27 02:23:00,17.2,8.5,30.56,East,90,0.0,0.0,68,0.00,,---,0.00,VWS V14.01,2013-01-27 07:23:00,
2013-01-27 02:28:00,17.1,8.7,30.59,East,90,0.0,0.0,69,0.00,,---,0.00,VWS V14.01,2013-01-27 07:28:00,
2013-01-27 02:33:00,17.1,8.7,30.59,East,90,0.0,0.0,69,0.00,,---,0.00,VWS V14.01,2013-01-27 07:33:00,
2013-01-27 02:38:00,16.9,8.5,30.59,East,90,0.0,0.0,69,0.00,,---,0.00,VWS V14.01,2013-01-27 07:38:00,
2013-01-27 02:43:00,17.1,8.7,30.59,East,90,0.0,0.0,69,0.00,,---,0.00,VWS V14.01,2013-01-27 07:43:00,
2013-01-27 02:48:00,16.9,8.5,30.59,East,90,0.0,0.0,69,0.00,,---,0.00,VWS V14.01,2013-01-27 07:48:00,
2013-01-27 02:53:00,16.7,8.3,30.59,East,90,0.0,0.0,69,0.00,,---,0.00,VWS V14.01,2013-01-27 07:53:00,
2013-01-27 02:58:00,16.7,8.3,30.59,East,90,0.0,0.0,69,0.00,,---,0.00,VWS V14.01,2013-01-27 07:58:00,
2013-01-27 03:03:00,16.7,8.6,30.59,East,90,0.0,0.0,70,0.00,,---,0.00,VWS V14.01,2013-01-27 08:03:00,
2013-01-27 03:08:00,16.7,8.6,30.59,East,90,0.0,0.0,70,0.00,,---,0.00,VWS V14.01,2013-01-27 08:08:00,
2013-01-27 03:13:00,16.5,8.1,30.59,East,90,0.0,0.0,69,0.00,,---,0.00,VWS V14.01,2013-01-27 08:13:00,
2013-01-27 03:18:00,16.7,8.6,30.59,East,90,0.0,0.0,70,0.00,,---,0.00,VWS V14.01,2013-01-27 08:18:00,
2013-01-27 03:23:00,17.1,9.3,30.59,East,90,0.0,0.0,71,0.00,,---,0.00,VWS V14.01,2013-01-27 08:23:00,
2013-01-27 03:28:00,17.4,9.6,30.59,East,90,0.0,0.0,71,0.00,,---,0.00,VWS V14.01,2013-01-27 08:28:00,
2013-01-27 03:33:00,17.8,10.0,30.59,East,90,2.0,2.0,71,0.00,,---,0.00,VWS V14.01,2013-01-27 08:33:00,
2013-01-27 03:38:00,18.0,10.2,30.59,East,90,0.0,0.0,71,0.00,,---,0.00,VWS V14.01,2013-01-27 08:38:00,
2013-01-27 03:43:00,18.1,10.3,30.59,East,90,0.0,0.0,71,0.00,,---,0.00,VWS V14.01,2013-01-27 08:43:00,
2013-01-27 03:48:00,18.3,10.5,30.59,East,90,0.0,0.0,71,0.00,,---,0.00,VWS V14.01,2013-01-27 08:48:00,
2013-01-27 03:53:00,18.7,11.2,30.59,East,90,0.0,0.0,72,0.00,,---,0.00,VWS V14.01,2013-01-27 08:53:00,
2013-01-27 03:58:00,18.7,11.2,30.62,East,90,0.9,1.3,72,0.00,,---,0.00,VWS V14.01,2013-01-27 08:58:00,
2013-01-27 04:03:00,18.9,11.3,30.62,East,90,0.0,0.9,72,0.00,,---,0.00,VWS V14.01,2013-01-27 09:03:00,
2013-01-27 04:08:00,19.0,11.5,30.62,East,90,2.0,2.0,72,0.00,,---,0.00,VWS V14.01,2013-01-27 09:08:00,
2013-01-27 04:13:00,19.2,12.0,30.62,East,90,0.0,0.0,73,0.00,,---,0.00,VWS V14.01,2013-01-27 09:13:00,
2013-01-27 04:18:00,19.4,12.5,30.62,East,90,0.0,0.0,74,0.00,,---,0.00,VWS V14.01,2013-01-27 09:18:00,
2013-01-27 04:23:00,19.4,12.5,30.62,East,90,0.0,0.0,74,0.00,,---,0.00,VWS V14.01,2013-01-27 09:23:00,
2013-01-27 04:28:00,19.6,12.4,30.62,NE,45,0.0,0.0,73,0.00,,---,0.00,VWS V14.01,2013-01-27 09:28:00,
2013-01-27 04:33:00,19.4,12.2,30.62,NE,45,0.0,0.0,73,0.00,,---,0.00,VWS V14.01,2013-01-27 09:33:00,
2013-01-27 04:38:00,19.4,12.2,30.62,NE,45,0.0,0.0,73,0.00,,---,0.00,VWS V14.01,2013-01-27 09:38:00,
2013-01-27 04:43:00,19.0,11.8,30.62,NE,45,0.0,0.0,73,0.00,,---,0.00,VWS V14.01,2013-01-27 09:43:00,
2013-01-27 04:48:00,19.0,11.8,30.62,NE,45,0.0,0.0,73,0.00,,---,0.00,VWS V14.01,2013-01-27 09:48:00,
2013-01-27 04:53:00,19.0,11.8,30.62,NE,45,0.0,0.0,73,0.00,,---,0.00,VWS V14.01,2013-01-27 09:53:00,
2013-01-27 04:58:00,18.9,11.6,30.62,NE,45,0.0,0.0,73,0.00,,---,0.00,VWS V14.01,2013-01-27 09:58:00,
2013-01-27 05:03:00,19.2,12.0,30.62,NE,45,0.0,0.0,73,0.00,,---,0.00,VWS V14.01,2013-01-27 10:03:00,
2013-01-27 05:08:00,19.0,11.8,30.62,NE,45,0.0,0.0,73,0.00,,---,0.00,VWS V14.01,2013-01-27 10:08:00,
2013-01-27 05:13:00,19.0,12.1,30.62,NE,45,0.0,0.0,74,0.00,,---,0.00,VWS V14.01,2013-01-27 10:13:00,
2013-01-27 05:18:00,19.2,12.3,30.62,NE,45,0.0,0.0,74,0.00,,---,0.00,VWS V14.01,2013-01-27 10:18:00,
2013-01-27 05:23:00,19.2,12.3,30.62,NE,45,0.0,0.0,74,0.00,,---,0.00,VWS V14.01,2013-01-27 10:23:00,
2013-01-27 05:28:00,19.4,12.5,30.62,ENE,68,0.0,0.0,74,0.00,,---,0.00,VWS V14.01,2013-01-27 10:28:00,
2013-01-27 05:33:00,19.6,12.6,30.62,ENE,68,0.0,0.0,74,0.00,,---,0.00,VWS V14.01,2013-01-27 10:33:00,
2013-01-27 05:38:00,19.8,12.8,30.62,ENE,68,0.0,0.0,74,0.00,,---,0.00,VWS V14.01,2013-01-27 10:38:00,
2013-01-27 05:43:00,19.9,13.0,30.62,ENE,68,0.0,0.0,74,0.00,,---,0.00,VWS V14.01,2013-01-27 10:43:00,
2013-01-27 05:48:00,19.9,13.0,30.62,ENE,68,0.0,0.0,74,0.00,,---,0.00,VWS V14.01,2013-01-27 10:48:00,
2013-01-27 05:53:00,19.9,13.3,30.62,ENE,68,0.0,0.0,75,0.00,,---,0.00,VWS V14.01,2013-01-27 10:53:00,
2013-01-27 05:58:00,19.9,13.3,30.62,ENE,68,0.0,0.0,75,0.00,,---,0.00,VWS V14.01,2013-01-27 10:58:00,
2013-01-27 06:03:00,20.1,13.5,30.62,ENE,68,0.0,0.0,75,0.00,,---,0.00,VWS V14.01,2013-01-27 11:03:00,
2013-01-27 06:08:00,19.9,13.3,30.62,ENE,68,0.0,0.0,75,0.00,,---,0.00,VWS V14.01,2013-01-27 11:08:00,
2013-01-27 06:13:00,19.9,13.3,30.62,ENE,68,0.0,0.0,75,0.00,,---,0.00,VWS V14.01,2013-01-27 11:13:00,
2013-01-27 06:18:00,19.9,13.3,30.62,ENE,68,0.0,0.0,75,0.00,,---,0.00,VWS V14.01,2013-01-27 11:18:00,
2013-01-27 06:23:00,20.1,13.8,30.62,ENE,68,0.0,0.0,76,0.00,,---,0.00,VWS V14.01,2013-01-27 11:23:00,
2013-01-27 06:28:00,20.1,13.8,30.62,ENE,68,0.0,0.0,76,0.00,,---,0.00,VWS V14.01,2013-01-27 11:28:00,
2013-01-27 06:33:00,20.3,14.0,30.62,ENE,68,0.0,0.0,76,0.00,,---,0.00,VWS V14.01,2013-01-27 11:33:00,
2013-01-27 06:37:00,20.3,14.0,30.62,ENE,68,0.0,0.0,76,0.00,,---,0.00,VWS V14.01,2013-01-27 11:37:00,
2013-01-27 06:42:00,20.5,14.1,30.62,ENE,68,0.0,0.0,76,0.00,,---,0.00,VWS V14.01,2013-01-27 11:42:00,
2013-01-27 06:47:00,20.7,14.3,30.62,ENE,68,0.0,0.0,76,0.00,,---,0.00,VWS V14.01,2013-01-27 11:47:00,
2013-01-27 06:52:00,20.8,14.5,30.62,ENE,68,0.0,0.0,76,0.00,,---,0.00,VWS V14.01,2013-01-27 11:52:00,
2013-01-27 06:57:00,20.7,14.3,30.62,ENE,68,0.0,0.0,76,0.00,,---,0.00,VWS V14.01,2013-01-27 11:57:00,
2013-01-27 07:02:00,20.7,14.3,30.62,ENE,68,0.0,0.0,76,0.00,,---,0.00,VWS V14.01,2013-01-27 12:02:00,
2013-01-27 07:07:00,20.8,14.5,30.62,West,270,0.0,0.0,76,0.00,,---,0.00,VWS V14.01,2013-01-27 12:07:00,
2013-01-27 07:12:00,20.7,14.0,30.65,West,270,0.0,0.0,75,0.00,,---,0.00,VWS V14.01,2013-01-27 12:12:00,
2013-01-27 07:17:00,20.7,14.0,30.65,West,270,0.0,0.0,75,0.00,,---,0.00,VWS V14.01,2013-01-27 12:17:00,
2013-01-27 07:22:00,20.5,13.8,30.65,West,270,0.0,0.0,75,0.00,,---,0.00,VWS V14.01,2013-01-27 12:22:00,
2013-01-27 07:27:00,20.3,13.7,30.68,West,270,0.0,0.0,75,0.00,,---,0.00,VWS V14.01,2013-01-27 12:27:00,
2013-01-27 07:32:00,20.3,13.7,30.68,West,270,0.0,0.0,75,0.00,,---,0.00,VWS V14.01,2013-01-27 12:32:00,
2013-01-27 07:37:00,20.3,13.7,30.68,West,270,0.0,0.0,75,0.00,,---,0.00,VWS V14.01,2013-01-27 12:37:00,
2013-01-27 07:42:00,20.1,13.5,30.68,West,270,0.0,0.0,75,0.00,,---,0.00,VWS V14.01,2013-01-27 12:42:00,
2013-01-27 07:47:00,20.1,13.5,30.68,West,270,0.0,0.0,75,0.00,,---,0.00,VWS V14.01,2013-01-27 12:47:00,
2013-01-27 07:52:00,20.1,13.5,30.68,West,270,0.0,0.0,75,0.00,,---,0.00,VWS V14.01,2013-01-27 12:52:00,
2013-01-27 07:57:00,20.3,13.7,30.68,West,270,0.0,0.0,75,0.00,,---,0.00,VWS V14.01,2013-01-27 12:57:00,
2013-01-27 08:02:00,20.3,13.7,30.68,West,270,0.0,0.0,75,0.00,,---,0.00,VWS V14.01,2013-01-27 13:02:00,
2013-01-27 08:07:00,20.5,14.1,30.68,West,270,0.0,0.0,76,0.00,,---,0.00,VWS V14.01,2013-01-27 13:07:00,
2013-01-27 08:12:00,21.0,14.7,30.65,West,270,0.0,0.0,76,0.00,,---,0.00,VWS V14.01,2013-01-27 13:12:00,
2013-01-27 08:17:00,21.2,15.1,30.65,West,270,0.0,0.0,77,0.00,,---,0.00,VWS V14.01,2013-01-27 13:17:00,
2013-01-27 08:22:00,21.6,15.5,30.65,SSE,158,0.0,0.0,77,0.00,,---,0.00,VWS V14.01,2013-01-27 13:22:00,
2013-01-27 08:27:00,21.7,15.6,30.68,SSE,158,0.0,0.0,77,0.00,,---,0.00,VWS V14.01,2013-01-27 13:27:00,
2013-01-27 08:32:00,22.1,16.0,30.68,SSE,158,0.0,0.0,77,0.00,,---,0.00,VWS V14.01,2013-01-27 13:32:00,
2013-01-27 08:37:00,22.8,16.7,30.68,SSE,158,0.0,0.0,77,0.00,,---,0.00,VWS V14.01,2013-01-27 13:37:00,
2013-01-27 08:42:00,23.5,17.7,30.68,SSE,158,0.0,0.0,78,0.00,,---,0.00,VWS V14.01,2013-01-27 13:42:00,
2013-01-27 08:47:00,23.9,18.0,30.68,SSE,158,0.0,0.0,78,0.00,,---,0.00,VWS V14.01,2013-01-27 13:47:00,
2013-01-27 08:52:00,24.3,18.4,30.68,SSE,158,0.0,0.0,78,0.00,,---,0.00,VWS V14.01,2013-01-27 13:52:00,
2013-01-27 08:57:00,24.4,18.6,30.68,SSE,158,0.0,0.0,78,0.00,,---,0.00,VWS V14.01,2013-01-27 13:57:00,
2013-01-27 09:02:00,25.3,19.5,30.68,ENE,68,0.0,0.0,78,0.00,,---,0.00,VWS V14.01,2013-01-27 14:02:00,
2013-01-27 09:07:00,25.7,19.8,30.68,ENE,68,0.0,0.0,78,0.00,,---,0.00,VWS V14.01,2013-01-27 14:07:00,
2013-01-27 09:12:00,26.1,19.9,30.71,NE,45,2.2,2.7,77,0.00,,---,0.00,VWS V14.01,2013-01-27 14:12:00,
2013-01-27 09:17:00,26.8,19.3,30.71,SE,135,1.6,4.0,73,0.00,,---,0.00,VWS V14.01,2013-01-27 14:17:00,
2013-01-27 09:22:00,27.3,18.5,30.71,WNW,292,1.3,2.0,69,0.00,,---,0.00,VWS V14.01,2013-01-27 14:22:00,
2013-01-27 09:27:00,27.7,18.2,30.71,WSW,248,0.0,0.0,67,0.00,,---,0.00,VWS V14.01,2013-01-27 14:27:00,
2013-01-27 09:32:00,27.9,18.3,30.71,SE,135,1.1,1.3,67,0.00,,---,0.00,VWS V14.01,2013-01-27 14:32:00,
2013-01-27 09:37:00,28.0,17.8,30.71,WNW,292,2.9,2.9,65,0.00,,---,0.00,VWS V14.01,2013-01-27 14:37:00,
2013-01-27 09:42:00,28.4,16.7,30.71,WSW,248,0.0,1.3,61,0.00,,---,0.00,VWS V14.01,2013-01-27 14:42:00,
2013-01-27 09:47:00,28.6,16.5,30.71,NNW,338,0.9,2.5,60,0.00,,---,0.00,VWS V14.01,2013-01-27 14:47:00,
2013-01-27 09:52:00,28.9,16.4,30.71,NNW,338,0.0,2.0,59,0.00,,---,0.00,VWS V14.01,2013-01-27 14:52:00,
2013-01-27 09:57:00,29.5,15.7,30.71,West,270,2.2,3.1,56,0.00,,---,0.00,VWS V14.01,2013-01-27 14:57:00,
2013-01-27 10:02:00,29.8,14.8,30.71,West,270,3.4,3.4,53,0.00,,---,0.00,VWS V14.01,2013-01-27 15:02:00,
2013-01-27 10:07:00,30.6,14.6,30.71,NNW,338,2.9,2.9,51,0.00,,---,0.00,VWS V14.01,2013-01-27 15:07:00,
2013-01-27 10:12:00,31.1,14.6,30.74,NNW,338,2.7,2.7,50,0.00,,---,0.00,VWS V14.01,2013-01-27 15:12:00,
2013-01-27 10:17:00,31.5,14.5,30.74,North,0,2.0,2.0,49,0.00,,---,0.00,VWS V14.01,2013-01-27 15:17:00,
2013-01-27 10:22:00,32.0,15.0,30.74,South,180,0.9,2.0,49,0.00,,---,0.00,VWS V14.01,2013-01-27 15:22:00,
2013-01-27 10:27:00,32.5,15.0,30.74,WNW,292,2.7,2.7,48,0.00,,---,0.00,VWS V14.01,2013-01-27 15:27:00,
2013-01-27 10:32:00,32.2,13.7,30.74,ENE,68,2.2,2.2,46,0.00,,---,0.00,VWS V14.01,2013-01-27 15:32:00,
2013-01-27 10:37:00,32.5,14.6,30.74,NNW,338,0.0,0.0,47,0.00,,---,0.00,VWS V14.01,2013-01-27 15:37:00,
2013-01-27 10:42:00,32.5,14.1,30.74,WNW,292,0.0,2.5,46,0.00,,---,0.00,VWS V14.01,2013-01-27 15:42:00,
2013-01-27 10:47:00,32.5,14.6,30.74,NNW,338,1.3,1.6,47,0.00,,---,0.00,VWS V14.01,2013-01-27 15:47:00,
2013-01-27 10:52:00,32.5,14.6,30.74,East,90,0.9,1.3,47,0.00,,---,0.00,VWS V14.01,2013-01-27 15:52:00,
2013-01-27 10:57:00,32.5,14.1,30.71,WSW,248,4.0,4.0,46,0.00,,---,0.00,VWS V14.01,2013-01-27 15:57:00,
2013-01-27 11:02:00,32.5,13.1,30.71,WNW,292,0.0,0.9,44,0.00,,---,0.00,VWS V14.01,2013-01-27 16:02:00,
2013-01-27 11:07:00,33.3,13.7,30.71,East,90,2.5,2.5,44,0.00,,---,0.00,VWS V14.01,2013-01-27 16:07:00,
2013-01-27 11:12:00,33.8,14.2,30.71,West,270,2.5,2.5,44,0.00,,---,0.00,VWS V14.01,2013-01-27 16:12:00,
2013-01-27 11:17:00,33.4,13.4,30.71,SSW,202,2.7,3.8,43,0.00,,---,0.00,VWS V14.01,2013-01-27 16:17:00,
2013-01-27 11:22:00,33.8,14.2,30.71,WSW,248,0.0,0.0,44,0.00,,---,0.00,VWS V14.01,2013-01-27 16:22:00,
2013-01-27 11:27:00,34.0,13.9,30.71,NNW,338,0.9,1.3,43,0.00,,---,0.00,VWS V14.01,2013-01-27 16:27:00,
2013-01-27 11:32:00,35.1,15.4,30.71,NE,45,0.0,0.0,44,0.00,,---,0.00,VWS V14.01,2013-01-27 16:32:00,
2013-01-27 11:37:00,35.2,15.5,30.71,ENE,68,1.6,1.6,44,0.00,,---,0.00,VWS V14.01,2013-01-27 16:37:00,
2013-01-27 11:42:00,34.9,15.2,30.71,ENE,68,3.1,3.1,44,0.00,,---,0.00,VWS V14.01,2013-01-27 16:42:00,
2013-01-27 11:47:00,34.3,14.7,30.71,NE,45,1.3,1.6,44,0.00,,---,0.00,VWS V14.01,2013-01-27 16:47:00,
2013-01-27 11:52:00,33.4,13.9,30.71,ENE,68,2.0,2.2,44,0.00,,---,0.00,VWS V14.01,2013-01-27 16:52:00,
2013-01-27 11:57:00,33.4,13.9,30.68,ESE,112,1.6,1.6,44,0.00,,---,0.00,VWS V14.01,2013-01-27 16:57:00,
2013-01-27 12:02:00,33.3,14.2,30.68,ENE,68,2.2,2.2,45,0.00,,---,0.00,VWS V14.01,2013-01-27 17:02:00,
2013-01-27 12:07:00,33.3,14.2,30.68,East,90,0.0,0.0,45,0.00,,---,0.00,VWS V14.01,2013-01-27 17:07:00,
2013-01-27 12:12:00,33.4,14.4,30.68,SW,225,1.6,1.6,45,0.00,,---,0.00,VWS V14.01,2013-01-27 17:12:00,
2013-01-27 12:17:00,33.8,14.2,30.68,East,90,1.6,1.6,44,0.00,,---,0.00,VWS V14.01,2013-01-27 17:17:00,
2013-01-27 12:22:00,33.8,14.7,30.68,ENE,68,0.0,0.0,45,0.00,,---,0.00,VWS V14.01,2013-01-27 17:22:00,
2013-01-27 12:27:00,33.8,14.2,30.68,NE,45,0.0,0.0,44,0.00,,---,0.00,VWS V14.01,2013-01-27 17:27:00,
2013-01-27 12:32:00,33.8,13.7,30.68,ENE,68,1.6,2.9,43,0.00,,---,0.00,VWS V14.01,2013-01-27 17:32:00,
2013-01-27 12:37:00,33.6,14.1,30.68,ENE,68,2.7,2.7,44,0.00,,---,0.00,VWS V14.01,2013-01-27 17:37:00,
2013-01-27 12:42:00,34.2,14.0,30.68,ENE,68,2.5,2.7,43,0.00,,---,0.00,VWS V14.01,2013-01-27 17:42:00,
2013-01-27 12:47:00,34.7,14.5,30.68,ENE,68,2.0,2.5,43,0.00,,---,0.00,VWS V14.01,2013-01-27 17:47:00,
2013-01-27 12:52:00,35.1,15.4,30.68,East,90,0.0,0.0,44,0.00,,---,0.00,VWS V14.01,2013-01-27 17:52:00,
2013-01-27 12:57:00,36.0,15.6,30.68,ENE,68,2.0,2.7,43,0.00,,---,0.00,VWS V14.01,2013-01-27 17:57:00,
2013-01-27 13:02:00,35.8,15.5,30.68,ESE,112,2.7,2.7,43,0.00,,---,0.00,VWS V14.01,2013-01-27 18:02:00,
2013-01-27 13:07:00,36.3,16.0,30.68,SE,135,0.0,0.0,43,0.00,,---,0.00,VWS V14.01,2013-01-27 18:07:00,
2013-01-27 13:12:00,35.6,14.8,30.65,ENE,68,2.5,2.5,42,0.00,,---,0.00,VWS V14.01,2013-01-27 18:12:00,
2013-01-27 13:17:00,35.2,15.0,30.65,NNE,22,2.7,2.9,43,0.00,,---,0.00,VWS V14.01,2013-01-27 18:17:00,
2013-01-27 13:22:00,34.3,14.2,30.65,ENE,68,3.6,3.6,43,0.00,,---,0.00,VWS V14.01,2013-01-27 18:22:00,
2013-01-27 13:27:00,35.4,15.2,30.65,ENE,68,2.7,2.9,43,0.00,,---,0.00,VWS V14.01,2013-01-27 18:27:00,
2013-01-27 13:32:00,35.2,15.0,30.65,ENE,68,1.6,1.6,43,0.00,,---,0.00,VWS V14.01,2013-01-27 18:32:00,
2013-01-27 13:37:00,36.0,15.6,30.65,NE,45,2.9,2.9,43,0.00,,---,0.00,VWS V14.01,2013-01-27 18:37:00,
2013-01-27 13:42:00,35.2,15.0,30.65,East,90,1.3,2.2,43,0.00,,---,0.00,VWS V14.01,2013-01-27 18:42:00,
2013-01-27 13:47:00,35.1,14.8,30.65,ENE,68,3.4,3.4,43,0.00,,---,0.00,VWS V14.01,2013-01-27 18:47:00,
2013-01-27 13:52:00,34.0,13.9,30.65,ENE,68,2.7,2.7,43,0.00,,---,0.00,VWS V14.01,2013-01-27 18:52:00,
2013-01-27 13:57:00,34.0,13.9,30.65,NE,45,3.8,3.8,43,0.00,,---,0.00,VWS V14.01,2013-01-27 18:57:00,
2013-01-27 14:02:00,33.4,13.4,30.65,ENE,68,5.6,5.6,43,0.00,,---,0.00,VWS V14.01,2013-01-27 19:02:00,
2013-01-27 14:07:00,32.9,13.4,30.65,NE,45,2.5,2.7,44,0.00,,---,0.00,VWS V14.01,2013-01-27 19:07:00,
2013-01-27 14:12:00,32.5,13.1,30.65,ENE,68,4.5,4.5,44,0.00,,---,0.00,VWS V14.01,2013-01-27 19:12:00,
2013-01-27 14:17:00,32.5,14.1,30.65,ENE,68,3.8,3.8,46,0.00,,---,0.00,VWS V14.01,2013-01-27 19:17:00,
2013-01-27 14:22:00,32.4,14.4,30.65,ENE,68,2.5,2.9,47,0.00,,---,0.00,VWS V14.01,2013-01-27 19:22:00,
2013-01-27 14:27:00,32.4,14.4,30.65,ENE,68,4.0,4.0,47,0.00,,---,0.00,VWS V14.01,2013-01-27 19:27:00,
2013-01-27 14:32:00,32.5,14.6,30.65,NNE,22,1.1,1.1,47,0.00,,---,0.00,VWS V14.01,2013-01-27 19:32:00,
2013-01-27 14:37:00,32.5,15.0,30.65,NE,45,3.1,3.1,48,0.00,,---,0.00,VWS V14.01,2013-01-27 19:37:00,
2013-01-27 14:42:00,32.5,15.0,30.62,NE,45,4.9,4.9,48,0.00,,---,0.00,VWS V14.01,2013-01-27 19:42:00,
2013-01-27 14:47:00,32.5,15.0,30.62,NE,45,3.4,3.4,48,0.00,,---,0.00,VWS V14.01,2013-01-27 19:47:00,
2013-01-27 14:52:00,32.5,15.0,30.62,ENE,68,3.6,3.6,48,0.00,,---,0.00,VWS V14.01,2013-01-27 19:52:00,
2013-01-27 14:57:00,32.5,15.0,30.62,NE,45,2.7,3.1,48,0.00,,---,0.00,VWS V14.01,2013-01-27 19:57:00,
2013-01-27 15:02:00,32.4,14.9,30.62,North,0,2.9,2.9,48,0.00,,---,0.00,VWS V14.01,2013-01-27 20:02:00,
2013-01-27 15:07:00,32.4,14.9,30.62,NE,45,2.5,2.9,48,0.00,,---,0.00,VWS V14.01,2013-01-27 20:07:00,
2013-01-27 15:12:00,32.2,14.7,30.62,ENE,68,2.0,2.0,48,0.00,,---,0.00,VWS V14.01,2013-01-27 20:12:00,
2013-01-27 15:17:00,32.2,15.2,30.62,East,90,0.0,0.0,49,0.00,,---,0.00,VWS V14.01,2013-01-27 20:17:00,
2013-01-27 15:22:00,32.2,14.7,30.62,ENE,68,0.0,0.0,48,0.00,,---,0.00,VWS V14.01,2013-01-27 20:22:00,
2013-01-27 15:27:00,32.2,14.7,30.62,East,90,0.0,0.0,48,0.00,,---,0.00,VWS V14.01,2013-01-27 20:27:00,
2013-01-27 15:32:00,32.2,15.2,30.62,NNW,338,0.0,0.9,49,0.00,,---,0.00,VWS V14.01,2013-01-27 20:32:00,
2013-01-27 15:37:00,32.4,15.4,30.62,WSW,248,0.0,0.0,49,0.00,,---,0.00,VWS V14.01,2013-01-27 20:37:00,
2013-01-27 15:42:00,32.5,15.5,30.62,ENE,68,0.0,2.5,49,0.00,,---,0.00,VWS V14.01,2013-01-27 20:42:00,
2013-01-27 15:47:00,32.7,15.7,30.62,NE,45,0.0,1.1,49,0.00,,---,0.00,VWS V14.01,2013-01-27 20:47:00,
2013-01-27 15:52:00,32.7,15.7,30.62,NNE,22,1.6,2.5,49,0.00,,---,0.00,VWS V14.01,2013-01-27 20:52:00,
2013-01-27 15:57:00,32.7,15.7,30.62,NNW,338,1.1,1.1,49,0.00,,---,0.00,VWS V14.01,2013-01-27 20:57:00,
2013-01-27 16:02:00,32.7,16.1,30.62,NNW,338,1.6,1.6,50,0.00,,---,0.00,VWS V14.01,2013-01-27 21:02:00,
2013-01-27 16:07:00,32.7,16.1,30.62,NE,45,0.9,2.5,50,0.00,,---,0.00,VWS V14.01,2013-01-27 21:07:00,
2013-01-27 16:12:00,32.7,15.7,30.62,NE,45,0.0,0.0,49,0.00,,---,0.00,VWS V14.01,2013-01-27 21:12:00,
2013-01-27 16:17:00,32.5,16.0,30.62,NE,45,0.0,0.0,50,0.00,,---,0.00,VWS V14.01,2013-01-27 21:17:00,
2013-01-27 16:22:00,32.4,15.8,30.62,NE,45,0.0,0.0,50,0.00,,---,0.00,VWS V14.01,2013-01-27 21:22:00,
2013-01-27 16:27:00,32.2,15.6,30.62,NE,45,0.0,0.0,50,0.00,,---,0.00,VWS V14.01,2013-01-27 21:27:00,
2013-01-27 16:32:00,32.2,15.6,30.62,NE,45,0.0,0.0,50,0.00,,---,0.00,VWS V14.01,2013-01-27 21:32:00,
2013-01-27 16:37:00,31.8,15.3,30.62,NE,45,0.0,0.0,50,0.00,,---,0.00,VWS V14.01,2013-01-27 21:37:00,
2013-01-27 16:42:00,31.5,15.0,30.62,NE,45,0.0,0.0,50,0.00,,---,0.00,VWS V14.01,2013-01-27 21:42:00,
2013-01-27 16:47:00,31.1,14.6,30.62,SSE,158,0.0,0.0,50,0.00,,---,0.00,VWS V14.01,2013-01-27 21:47:00,
2013-01-27 16:52:00,30.9,14.5,30.62,SSE,158,0.0,0.0,50,0.00,,---,0.00,VWS V14.01,2013-01-27 21:52:00,
2013-01-27 16:57:00,30.4,14.0,30.62,SSE,158,0.0,0.0,50,0.00,,---,0.00,VWS V14.01,2013-01-27 21:57:00,
2013-01-27 17:02:00,30.0,14.1,30.62,SSE,158,0.0,0.0,51,0.00,,---,0.00,VWS V14.01,2013-01-27 22:02:00,
2013-01-27 17:07:00,29.8,13.9,30.62,SSE,158,0.0,0.0,51,0.00,,---,0.00,VWS V14.01,2013-01-27 22:07:00,
2013-01-27 17:12:00,29.3,13.9,30.62,SSE,158,0.0,0.0,52,0.00,,---,0.00,VWS V14.01,2013-01-27 22:12:00,
2013-01-27 17:17:00,29.1,13.7,30.62,SSE,158,0.0,0.0,52,0.00,,---,0.00,VWS V14.01,2013-01-27 22:17:00,
2013-01-27 17:22:00,28.9,14.0,30.62,SSE,158,0.0,0.0,53,0.00,,---,0.00,VWS V14.01,2013-01-27 22:22:00,
2013-01-27 17:27:00,28.8,13.8,30.62,SSE,158,0.0,0.0,53,0.00,,---,0.00,VWS V14.01,2013-01-27 22:27:00,
2013-01-27 17:32:00,28.9,14.4,30.62,SSE,158,0.0,0.0,54,0.00,,---,0.00,VWS V14.01,2013-01-27 22:32:00,
2013-01-27 17:37:00,28.8,14.2,30.62,SSE,158,0.0,0.0,54,0.00,,---,0.00,VWS V14.01,2013-01-27 22:37:00,
2013-01-27 17:42:00,28.6,14.1,30.65,SSE,158,0.0,0.0,54,0.00,,---,0.00,VWS V14.01,2013-01-27 22:42:00,
2013-01-27 17:47:00,28.2,14.1,30.65,SSE,158,0.0,0.0,55,0.00,,---,0.00,VWS V14.01,2013-01-27 22:47:00,
2013-01-27 17:52:00,28.0,14.4,30.65,SSE,158,0.0,0.0,56,0.00,,---,0.00,VWS V14.01,2013-01-27 22:52:00,
2013-01-27 17:57:00,27.9,14.2,30.65,SSE,158,0.0,0.0,56,0.00,,---,0.00,VWS V14.01,2013-01-27 22:57:00,
2013-01-27 18:02:00,27.5,13.9,30.65,SSE,158,0.0,0.0,56,0.00,,---,0.00,VWS V14.01,2013-01-27 23:02:00,
2013-01-27 18:07:00,27.7,14.0,30.65,SSE,158,0.0,0.0,56,0.00,,---,0.00,VWS V14.01,2013-01-27 23:07:00,
2013-01-27 18:12:00,27.3,14.1,30.65,SSE,158,0.0,0.0,57,0.00,,---,0.00,VWS V14.01,2013-01-27 23:12:00,
2013-01-27 18:17:00,27.1,13.9,30.65,SSE,158,0.0,0.0,57,0.00,,---,0.00,VWS V14.01,2013-01-27 23:17:00,
2013-01-27 18:22:00,27.0,13.8,30.65,SSE,158,0.0,0.0,57,0.00,,---,0.00,VWS V14.01,2013-01-27 23:22:00,
2013-01-27 18:27:00,26.8,14.0,30.65,SSE,158,0.0,0.0,58,0.00,,---,0.00,VWS V14.01,2013-01-27 23:27:00,
2013-01-27 18:32:00,26.2,13.5,30.65,SSE,158,0.0,0.0,58,0.00,,---,0.00,VWS V14.01,2013-01-27 23:32:00,
2013-01-27 18:37:00,26.1,13.7,30.65,SSE,158,0.0,0.0,59,0.00,,---,0.00,VWS V14.01,2013-01-27 23:37:00,
2013-01-27 18:42:00,25.9,13.5,30.65,SSE,158,0.0,0.0,59,0.00,,---,0.00,VWS V14.01,2013-01-27 23:42:00,
2013-01-27 18:47:00,25.7,13.4,30.65,SSE,158,0.0,0.0,59,0.00,,---,0.00,VWS V14.01,2013-01-27 23:47:00,
2013-01-27 18:52:00,25.5,13.2,30.65,SSE,158,0.0,0.0,59,0.00,,---,0.00,VWS V14.01,2013-01-27 23:52:00,
2013-01-27 18:57:00,25.3,13.4,30.65,SSE,158,0.0,0.0,60,0.00,,---,0.00,VWS V14.01,2013-01-27 23:57:00,
2013-01-27 19:02:00,25.2,13.2,30.65,SSE,158,0.0,0.0,60,0.00,,---,0.00,VWS V14.01,2013-01-28 00:02:00,
2013-01-27 19:07:00,25.0,13.1,30.65,SSE,158,0.0,0.0,60,0.00,,---,0.00,VWS V14.01,2013-01-28 00:07:00,
2013-01-27 19:12:00,25.0,13.4,30.65,SSE,158,0.0,0.0,61,0.00,,---,0.00,VWS V14.01,2013-01-28 00:12:00,
2013-01-27 19:17:00,24.8,13.3,30.65,SSE,158,0.0,0.0,61,0.00,,---,0.00,VWS V14.01,2013-01-28 00:17:00,
2013-01-27 19:22:00,24.6,13.5,30.65,SSE,158,0.0,0.0,62,0.00,,---,0.00,VWS V14.01,2013-01-28 00:22:00,
2013-01-27 19:27:00,24.4,13.3,30.65,SSE,158,0.0,0.0,62,0.00,,---,0.00,VWS V14.01,2013-01-28 00:27:00,
2013-01-27 19:32:00,24.6,13.8,30.65,SSE,158,0.0,0.0,63,0.00,,---,0.00,VWS V14.01,2013-01-28 00:32:00,
2013-01-27 19:37:00,25.0,13.8,30.65,SSE,158,0.0,0.0,62,0.00,,---,0.00,VWS V14.01,2013-01-28 00:37:00,
2013-01-27 19:42:00,24.8,14.0,30.65,SSE,158,0.0,0.0,63,0.00,,---,0.00,VWS V14.01,2013-01-28 00:42:00,
2013-01-27 19:47:00,24.8,14.4,30.65,SSE,158,0.0,0.0,64,0.00,,---,0.00,VWS V14.01,2013-01-28 00:47:00,
2013-01-27 19:52:00,24.6,14.2,30.65,SSE,158,0.0,0.0,64,0.00,,---,0.00,VWS V14.01,2013-01-28 00:52:00,
2013-01-27 19:57:00,24.4,14.0,30.65,SSE,158,0.0,0.0,64,0.00,,---,0.00,VWS V14.01,2013-01-28 00:57:00,
2013-01-27 20:02:00,24.3,13.9,30.65,SSE,158,0.0,0.0,64,0.00,,---,0.00,VWS V14.01,2013-01-28 01:02:00,
2013-01-27 20:07:00,24.3,14.2,30.65,SSE,158,0.0,0.0,65,0.00,,---,0.00,VWS V14.01,2013-01-28 01:07:00,
2013-01-27 20:12:00,24.1,14.0,30.65,SSE,158,0.0,0.0,65,0.00,,---,0.00,VWS V14.01,2013-01-28 01:12:00,
2013-01-27 20:17:00,23.9,13.9,30.65,SSE,158,0.0,0.0,65,0.00,,---,0.00,VWS V14.01,2013-01-28 01:17:00,
2013-01-27 20:22:00,24.1,14.4,30.65,SSE,158,0.0,0.0,66,0.00,,---,0.00,VWS V14.01,2013-01-28 01:22:00,
2013-01-27 20:27:00,24.1,14.7,30.65,SSE,158,0.0,0.0,67,0.00,,---,0.00,VWS V14.01,2013-01-28 01:27:00,
2013-01-27 20:32:00,24.3,14.9,30.65,SSE,158,0.0,0.0,67,0.00,,---,0.00,VWS V14.01,2013-01-28 01:32:00,
2013-01-27 20:37:00,24.4,15.1,30.65,SSE,158,0.0,0.0,67,0.00,,---,0.00,VWS V14.01,2013-01-28 01:37:00,
2013-01-27 20:42:00,24.4,15.1,30.65,SSE,158,0.0,0.0,67,0.00,,---,0.00,VWS V14.01,2013-01-28 01:42:00,
2013-01-27 20:47:00,24.4,15.4,30.65,SSE,158,0.0,0.0,68,0.00,,---,0.00,VWS V14.01,2013-01-28 01:47:00,
2013-01-27 20:52:00,24.6,15.6,30.65,SSE,158,0.0,0.0,68,0.00,,---,0.00,VWS V14.01,2013-01-28 01:52:00,
2013-01-27 20:57:00,24.6,15.6,30.62,SSE,158,0.0,0.0,68,0.00,,---,0.00,VWS V14.01,2013-01-28 01:57:00,
2013-01-27 21:02:00,24.4,15.4,30.62,SSE,158,0.0,0.0,68,0.00,,---,0.00,VWS V14.01,2013-01-28 02:02:00,
2013-01-27 21:07:00,24.4,15.7,30.62,SSE,158,0.0,0.0,69,0.00,,---,0.00,VWS V14.01,2013-01-28 02:07:00,
2013-01-27 21:12:00,24.4,15.7,30.65,SSE,158,0.0,0.0,69,0.00,,---,0.00,VWS V14.01,2013-01-28 02:12:00,
2013-01-27 21:17:00,24.4,15.7,30.65,SSE,158,0.0,0.0,69,0.00,,---,0.00,VWS V14.01,2013-01-28 02:17:00,
2013-01-27 21:22:00,24.3,15.6,30.65,SSE,158,0.0,0.0,69,0.00,,---,0.00,VWS V14.01,2013-01-28 02:22:00,
2013-01-27 21:27:00,24.3,15.9,30.65,SSE,158,0.0,0.0,70,0.00,,---,0.00,VWS V14.01,2013-01-28 02:27:00,
2013-01-27 21:32:00,24.1,15.7,30.65,SSE,158,0.0,0.0,70,0.00,,---,0.00,VWS V14.01,2013-01-28 02:32:00,
2013-01-27 21:37:00,24.1,15.7,30.65,SSE,158,0.0,0.0,70,0.00,,---,0.00,VWS V14.01,2013-01-28 02:37:00,
2013-01-27 21:42:00,24.3,16.2,30.65,SSE,158,0.0,0.0,71,0.00,,---,0.00,VWS V14.01,2013-01-28 02:42:00,
2013-01-27 21:47:00,24.1,16.0,30.65,SSE,158,0.0,0.0,71,0.00,,---,0.00,VWS V14.01,2013-01-28 02:47:00,
2013-01-27 21:52:00,23.9,15.9,30.65,SSE,158,0.0,0.0,71,0.00,,---,0.00,VWS V14.01,2013-01-28 02:52:00,
2013-01-27 21:57:00,24.1,16.0,30.62,SSE,158,0.0,0.0,71,0.00,,---,0.00,VWS V14.01,2013-01-28 02:57:00,
2013-01-27 22:02:00,23.9,16.2,30.62,SSE,158,0.0,0.0,72,0.00,,---,0.00,VWS V14.01,2013-01-28 03:02:00,
2013-01-27 22:07:00,23.9,16.2,30.62,SSE,158,0.0,0.0,72,0.00,,---,0.00,VWS V14.01,2013-01-28 03:07:00,
2013-01-27 22:12:00,23.9,16.2,30.62,SSE,158,0.0,0.0,72,0.00,,---,0.00,VWS V14.01,2013-01-28 03:12:00,
2013-01-27 22:17:00,23.7,16.0,30.62,SSE,158,0.0,0.0,72,0.00,,---,0.00,VWS V14.01,2013-01-28 03:17:00,
2013-01-27 22:22:00,24.3,16.5,30.62,SSE,158,0.0,0.0,72,0.00,,---,0.00,VWS V14.01,2013-01-28 03:22:00,
2013-01-27 22:27:00,24.3,16.9,30.62,SSE,158,0.0,0.0,73,0.00,,---,0.00,VWS V14.01,2013-01-28 03:27:00,
2013-01-27 22:32:00,24.1,16.7,30.62,SSE,158,0.0,0.0,73,0.00,,---,0.00,VWS V14.01,2013-01-28 03:32:00,
2013-01-27 22:37:00,23.9,16.5,30.62,SSE,158,0.0,0.0,73,0.00,,---,0.00,VWS V14.01,2013-01-28 03:37:00,
2013-01-27 22:42:00,24.1,16.7,30.62,SSE,158,0.0,0.0,73,0.00,,---,0.00,VWS V14.01,2013-01-28 03:42:00,
2013-01-27 22:47:00,23.9,16.5,30.62,SSE,158,0.0,0.0,73,0.00,,---,0.00,VWS V14.01,2013-01-28 03:47:00,
2013-01-27 22:52:00,23.9,16.8,30.62,SSE,158,0.0,0.0,74,0.00,,---,0.00,VWS V14.01,2013-01-28 03:52:00,
2013-01-27 22:57:00,24.1,17.0,30.62,SSE,158,0.0,0.0,74,0.00,,---,0.00,VWS V14.01,2013-01-28 03:57:00,
2013-01-27 23:02:00,24.3,17.2,30.62,SSE,158,0.0,0.0,74,0.00,,---,0.00,VWS V14.01,2013-01-28 04:02:00,
2013-01-27 23:07:00,24.1,17.0,30.62,SSE,158,0.0,0.0,74,0.00,,---,0.00,VWS V14.01,2013-01-28 04:07:00,
2013-01-27 23:12:00,24.4,17.7,30.62,SSE,158,0.0,0.0,75,0.00,,---,0.00,VWS V14.01,2013-01-28 04:12:00,
2013-01-27 23:17:00,24.6,17.8,30.62,SSE,158,0.0,0.0,75,0.00,,---,0.00,VWS V14.01,2013-01-28 04:17:00,
2013-01-27 23:22:00,24.8,18.3,30.62,SSE,158,0.0,0.0,76,0.00,,---,0.00,VWS V14.01,2013-01-28 04:22:00,
2013-01-27 23:27:00,25.0,18.5,30.62,SSE,158,0.0,0.0,76,0.00,,---,0.00,VWS V14.01,2013-01-28 04:27:00,
2013-01-27 23:32:00,25.2,18.7,30.62,SSE,158,0.0,0.0,76,0.00,,---,0.00,VWS V14.01,2013-01-28 04:32:00,
2013-01-27 23:37:00,25.3,18.9,30.62,SSE,158,0.0,0.0,76,0.00,,---,0.00,VWS V14.01,2013-01-28 04:37:00,
2013-01-27 23:42:00,25.7,19.5,30.62,SSE,158,0.0,0.0,77,0.00,,---,0.00,VWS V14.01,2013-01-28 04:42:00,
2013-01-27 23:47:00,26.1,19.9,30.62,SSE,158,0.0,0.0,77,0.00,,---,0.00,VWS V14.01,2013-01-28 04:47:00,
2013-01-27 23:52:00,26.2,20.0,30.62,SSE,158,0.0,0.0,77,0.00,,---,0.00,VWS V14.01,2013-01-28 04:52:00,
2013-01-27 23:57:00,26.2,20.0,30.65,SSE,158,0.0,0.0,77,0.00,,---,0.00,VWS V14.01,2013-01-28 04:57:00,